Hourly Weather Neuquén

Today, 1 October, Thursday

Time Temperature Precipitation Wind Pressure Humidity
00:00 +6°C° 0 mm 9 mps 732 mmHg 37%
01:00 +6°C° 0 mm 8 mps 732 mmHg 38%
02:00 +5°C° 0 mm 8 mps 732 mmHg 40%
03:00 +5°C° 0 mm 8 mps 732 mmHg 41%
04:00 +4°C° 0 mm 8 mps 732 mmHg 42%
05:00 +5°C° 0 mm 9 mps 733 mmHg 40%
06:00 +6°C° 0 mm 9 mps 733 mmHg 37%
07:00 +7°C° 0 mm 10 mps 733 mmHg 34%
08:00 +10°C° 0 mm 9 mps 733 mmHg 31%
09:00 +11°C° 0 mm 9 mps 733 mmHg 28%
10:00 +13°C° 0 mm 8 mps 733 mmHg 25%
11:00 +13°C° 0 mm 8 mps 732 mmHg 23%
12:00 +15°C° 0 mm 8 mps 732 mmHg 21%
13:00 +16°C° 0 mm 7 mps 731 mmHg 19%
14:00 +16°C° 0 mm 7 mps 731 mmHg 19%
15:00 +16°C° 0 mm 7 mps 731 mmHg 19%
16:00 +16°C° 0 mm 6 mps 731 mmHg 20%
17:00 +15°C° 0 mm 6 mps 731 mmHg 23%
18:00 +14°C° 0 mm 6 mps 732 mmHg 27%
19:00 +13°C° 0 mm 6 mps 733 mmHg 30%
20:00 +11°C° 0 mm 7 mps 734 mmHg 32%
21:00 +10°C° 0 mm 7 mps 734 mmHg 34%
22:00 +8°C° 0 mm 7 mps 735 mmHg 36%
23:00 +6°C° 0 mm 8 mps 736 mmHg 36%

Tomorrow, 2 October, Friday

Time Temperature Precipitation Wind Pressure Humidity
00:00 +5°C° 0 mm 8 mps 736 mmHg 35%
01:00 +4°C° 0 mm 8 mps 737 mmHg 35%
02:00 +2°C° 0 mm 9 mps 738 mmHg 41%
03:00 +2°C° 0 mm 9 mps 738 mmHg 48%
04:00 +1°C° 0 mm 10 mps 739 mmHg 55%
05:00 +1°C° 0 mm 11 mps 740 mmHg 58%
06:00 +1°C° 0 mm 11 mps 741 mmHg 62%
07:00 0°C° 0 mm 12 mps 742 mmHg 66%
08:00 +2°C° 0 mm 11 mps 743 mmHg 55%
09:00 +3°C° 0 mm 11 mps 743 mmHg 45%
10:00 +6°C° 0 mm 11 mps 744 mmHg 34%
11:00 +6°C° 0 mm 11 mps 744 mmHg 37%
12:00 +7°C° 0 mm 11 mps 744 mmHg 39%
13:00 +8°C° 0 mm 11 mps 744 mmHg 42%
14:00 +8°C° 0 mm 11 mps 744 mmHg 41%
15:00 +7°C° 0 mm 10 mps 744 mmHg 40%
16:00 +7°C° 0 mm 10 mps 744 mmHg 40%
17:00 +7°C° 0 mm 10 mps 744 mmHg 39%
18:00 +7°C° 0 mm 10 mps 745 mmHg 39%
19:00 +7°C° 0 mm 10 mps 745 mmHg 38%
20:00 +6°C° 0 mm 10 mps 746 mmHg 40%
21:00 +4°C° 0 mm 11 mps 746 mmHg 42%
22:00 +3°C° 0 mm 11 mps 747 mmHg 44%
23:00 +3°C° 0 mm 11 mps 747 mmHg 48%

Day after tomorrow, 3 October, Saturday

Time Temperature Precipitation Wind Pressure Humidity
00:00 +2°C° 0 mm 10 mps 747 mmHg 51%
01:00 +2°C° 0 mm 9 mps 747 mmHg 54%
02:00 +1°C° 0 mm 9 mps 747 mmHg 55%
03:00 +1°C° 0 mm 9 mps 747 mmHg 56%
04:00 +1°C° 0 mm 9 mps 747 mmHg 57%
05:00 +1°C° 0.1 mm 9 mps 747 mmHg 59%
06:00 +1°C° 0.1 mm 9 mps 747 mmHg 60%
07:00 +1°C° 0.1 mm 8 mps 747 mmHg 62%
08:00 +2°C° 0 mm 8 mps 747 mmHg 59%
09:00 +4°C° 0 mm 8 mps 746 mmHg 56%
10:00 +5°C° 0 mm 8 mps 746 mmHg 53%
11:00 +5°C° 0.2 mm 8 mps 746 mmHg 60%
12:00 +5°C° 0.2 mm 8 mps 745 mmHg 66%
13:00 +5°C° 0.2 mm 8 mps 745 mmHg 73%
14:00 +4°C° 0.3 mm 7 mps 744 mmHg 76%
15:00 +4°C° 0.3 mm 7 mps 743 mmHg 79%
16:00 +3°C° 0.3 mm 6 mps 743 mmHg 82%
17:00 +4°C° 0.1 mm 6 mps 743 mmHg 76%
18:00 +6°C° 0.1 mm 5 mps 743 mmHg 70%
19:00 +6°C° 0.1 mm 5 mps 743 mmHg 63%
20:00 +6°C° 0 mm 4 mps 743 mmHg 61%
21:00 +6°C° 0 mm 4 mps 742 mmHg 58%
22:00 +6°C° 0 mm 4 mps 742 mmHg 55%
23:00 +6°C° 0 mm 4 mps 741 mmHg 55%

4 October, Sunday

Time Temperature Precipitation Wind Pressure Humidity
00:00 +6°C° 0 mm 4 mps 741 mmHg 54%
01:00 +6°C° 0 mm 5 mps 740 mmHg 54%
02:00 +6°C° 0.4 mm 5 mps 740 mmHg 62%
03:00 +5°C° 0.4 mm 5 mps 740 mmHg 70%
04:00 +5°C° 0.4 mm 5 mps 740 mmHg 79%
05:00 +3°C° 0.5 mm 5 mps 740 mmHg 81%
06:00 +3°C° 0.5 mm 5 mps 740 mmHg 82%
07:00 +3°C° 0.5 mm 5 mps 740 mmHg 84%
08:00 +3°C° 0.8 mm 5 mps 740 mmHg 85%
09:00 +3°C° 0.8 mm 5 mps 740 mmHg 86%
10:00 +4°C° 0.8 mm 4 mps 739 mmHg 87%
11:00 +4°C° 0.9 mm 4 mps 739 mmHg 87%
12:00 +5°C° 0.9 mm 3 mps 739 mmHg 88%
13:00 +6°C° 0.9 mm 2 mps 739 mmHg 88%
14:00 +6°C° 0.1 mm 2 mps 739 mmHg 85%
15:00 +7°C° 0.1 mm 1 mps 739 mmHg 83%
16:00 +8°C° 0.1 mm 1 mps 738 mmHg 80%
17:00 +7°C° 0 mm 1 mps 738 mmHg 83%
18:00 +6°C° 0 mm 1 mps 738 mmHg 86%
19:00 +6°C° 0 mm 1 mps 738 mmHg 89%
20:00 +6°C° 0 mm 1 mps 738 mmHg 88%
21:00 +5°C° 0 mm 1 mps 738 mmHg 88%
22:00 +5°C° 0 mm 1 mps 738 mmHg 88%
23:00 +5°C° 0 mm 1 mps 738 mmHg 88%

5 October, Monday

Time Temperature Precipitation Wind Pressure Humidity
00:00 +4°C° 0 mm 2 mps 737 mmHg 87%
01:00 +4°C° 0 mm 2 mps 737 mmHg 87%
02:00 +4°C° 0 mm 2 mps 737 mmHg 86%
03:00 +5°C° 0 mm 1 mps 736 mmHg 86%
04:00 +5°C° 0 mm 1 mps 736 mmHg 85%
05:00 +6°C° 0 mm 1 mps 736 mmHg 78%
06:00 +8°C° 0 mm 1 mps 736 mmHg 71%
07:00 +9°C° 0 mm 1 mps 736 mmHg 64%
08:00 +10°C° 0 mm 2 mps 735 mmHg 57%
09:00 +13°C° 0 mm 2 mps 735 mmHg 49%
10:00 +14°C° 0 mm 3 mps 734 mmHg 42%
11:00 +15°C° 0 mm 4 mps 733 mmHg 38%
12:00 +16°C° 0 mm 5 mps 733 mmHg 34%
13:00 +19°C° 0 mm 6 mps 732 mmHg 30%
14:00 +19°C° 0 mm 6 mps 731 mmHg 28%
15:00 +20°C° 0 mm 6 mps 730 mmHg 27%
16:00 +20°C° 0 mm 5 mps 730 mmHg 25%
17:00 +19°C° 0 mm 5 mps 729 mmHg 29%
18:00 +16°C° 0 mm 5 mps 729 mmHg 33%
19:00 +15°C° 0 mm 4 mps 729 mmHg 36%
20:00 +14°C° 0 mm 4 mps 729 mmHg 39%
21:00 +14°C° 0 mm 4 mps 729 mmHg 42%
22:00 +13°C° 0 mm 4 mps 729 mmHg 45%
23:00 +13°C° 0 mm 3 mps 729 mmHg 47%

6 October, Tuesday

Time Temperature Precipitation Wind Pressure Humidity
00:00 +12°C° 0 mm 3 mps 729 mmHg 48%
01:00 +12°C° 0 mm 2 mps 728 mmHg 50%
02:00 +11°C° 0 mm 3 mps 729 mmHg 49%
03:00 +11°C° 0 mm 3 mps 729 mmHg 48%
04:00 +11°C° 0 mm 4 mps 729 mmHg 47%
05:00 +10°C° 0 mm 5 mps 730 mmHg 42%
06:00 +11°C° 0 mm 6 mps 730 mmHg 38%
07:00 +12°C° 0 mm 7 mps 731 mmHg 33%
08:00 +14°C° 0 mm 7 mps 731 mmHg 30%
09:00 +16°C° 0 mm 7 mps 731 mmHg 28%
10:00 +18°C° 0 mm 7 mps 731 mmHg 25%
11:00 +20°C° 0 mm 8 mps 731 mmHg 22%
12:00 +21°C° 0 mm 8 mps 730 mmHg 19%
13:00 +22°C° 0 mm 9 mps 730 mmHg 16%
14:00 +21°C° 0 mm 9 mps 730 mmHg 16%
15:00 +21°C° 0 mm 9 mps 730 mmHg 16%
16:00 +21°C° 0 mm 9 mps 730 mmHg 16%
17:00 +18°C° 0 mm 8 mps 731 mmHg 23%
18:00 +17°C° 0 mm 7 mps 731 mmHg 30%
19:00 +15°C° 0 mm 5 mps 731 mmHg 37%
20:00 +14°C° 0 mm 6 mps 732 mmHg 39%
21:00 +13°C° 0 mm 6 mps 733 mmHg 40%
22:00 +11°C° 0 mm 7 mps 733 mmHg 42%
23:00 +11°C° 0 mm 6 mps 733 mmHg 42%
Show more

We Need Your Consent

Meteoprog and our Service Providers may store and access personal data such as cookies, device identifiers or other similar technologies on your device and process such data to personalise content and ads, as well as provide social media features and to analyse the traffic.

  • Store and/or access information on your device

    Cookies, device identifiers or other information can be stored or accessed on your device for the purposes indicated above.

  • Personalised ads and content, ad and content measurement, audience insights, and products development

    Ads and content can be personalised based on a profile. More data can be added to better personalise ads and content. Ad and content performance can be measured. Insights about the audience who saw the ads and content can be derived. Such data can be used to develop or improve user’s experience, systems and software.

By clicking ‘I Agree’ you will allow the use of indicated cookies, device identifiers, web beacons or other similar technologies. Your settings can be changed in the browser on your device.

For certain purposes, legitimate interests may be relied on, rather than consent. You can read more about this in our Privacy and Cookie Policy.